[[{"header":{"parameterUnit":"m.s-1","parameterCategory":2,"la1":30.2991,"la2":30.254,"lo1":-89.0895,"lo2":-89.0444,"dy":0.0017,"dx":0.0017,"nx":28,"ny":28,"refTime":"2025-03-17T03:00:00:Z","depth":"0","parameterNumber":2,"parameterNumberName":"U-component_of_CURRENTS"},"data":[0,0,0,0,0,0,0,0,0,0,0,0,0,0,0,0,0,0,0,0,0,0,0,0,0,0,0,0,0,0,0,0,0,0,0,0,0,0,0,0,0,0,0,0,0,0,0,0,0,0,0,0,0,0,0,0,0,0,0.1538,0.1538,0,0.1566,0.1566,0.1566,0.157,0.157,0.157,0.157,0.1578,0.1578,0.1578,0,0,0,0,0,0,0,0,0,0,0,0,0,0.1484,0.1485,0.1538,0.1538,0.1539,0.1566,0.1566,0.1566,0.157,0.157,0.157,0.157,0.1578,0.1578,0.1578,0,0,0,0,0,0,0,0,0,0,0,0,0,0.1508,0.1485,0.1538,0.1545,0.1546,0.1566,0.1566,0.1566,0.157,0.157,0.157,0.157,0.1577,0.1578,0.1578,0.1586,0,0,0.158,0.158,0,0,0,0,0,0,0,0,0.1507,0.151,0.1543,0.1544,0.1546,0.1565,0.155,0.1572,0.157,0.156,0.157,0.157,0.1572,0.1573,0.1578,0.1587,0.1587,0.158,0.158,0.1581,0.1581,0,0,0,0,0,0,0,0.1505,0.1509,0.1548,0.1544,0.1545,0.1545,0.1548,0.1554,0.1566,0.1561,0.1561,0.1566,0.1573,0.1577,0.1578,0.1587,0.158,0.158,0.1581,0.1581,0.1633,0.1634,0,0,0,0,0,0,0.1504,0.1507,0.1547,0.1549,0.1526,0.1546,0.155,0.1558,0.1566,0.1568,0.1567,0.1566,0.1577,0.1577,0.1578,0.1618,0.1581,0.1581,0.1581,0.1632,0.1633,0.1634,0,0,0,0,0,0,0.1503,0.1508,0.1546,0.1529,0.1534,0.1548,0.1557,0.1559,0.1566,0.1571,0.1572,0.1572,0.1576,0.1578,0.1591,0.1617,0.1581,0.1582,0.1631,0.1632,0.1634,0.1678,0,0,0,0,0,0,0.1502,0.1507,0.1513,0.1529,0.1535,0.1565,0.1558,0.156,0.157,0.157,0.1576,0.1576,0.1576,0.159,0.1591,0.1617,0.1582,0.1629,0.1631,0.1633,0.1675,0.1681,0.1686,0,0,0,0,0,0.15,0.1512,0.1513,0.1518,0.1542,0.1565,0.1569,0.1576,0.157,0.158,0.1583,0.1576,0.1604,0.1591,0.1593,0.1619,0.1628,0.1631,0.1633,0.1673,0.168,0.1685,0,0,0,0,0,0,0.1496,0.1515,0.1515,0.1534,0.155,0.1567,0.1577,0.1578,0.1588,0.1587,0.1585,0.1587,0.161,0.1607,0.1593,0.164,0.1617,0.162,0.1647,0.1653,0.1658,0.1673,0.1583,0,0,0,0,0,0.1497,0.1509,0.1527,0.1542,0.1551,0.1562,0.1571,0.1578,0.1589,0.1593,0.1598,0.1606,0.1622,0.1629,0.1639,0.1661,0.1707,0.1681,0.1686,0.169,0.1704,0.1786,0.18,0.1642,0.1642,0.1642,0,0,0.1499,0.1511,0.1518,0.1542,0.1554,0.1578,0.1567,0.1587,0.1608,0.1592,0.162,0.1622,0.1631,0.166,0.1671,0.166,0.1767,0.1694,0.1697,0.1708,0.179,0.1805,0.1819,0.1644,0.1644,0.1643,0,0,0.1517,0.1523,0.1541,0.1557,0.1578,0.1589,0.1595,0.1615,0.1624,0.1648,0.1647,0.1666,0.1682,0.1702,0.1711,0.1751,0.179,0.1753,0.1794,0.1873,0.1888,0.19,0.2012,0.2035,0.1757,0.1757,0.1757,0,0.1521,0.1546,0.155,0.1576,0.1592,0.1596,0.1624,0.1639,0.166,0.1676,0.1662,0.1709,0.1707,0.1758,0.1772,0.1765,0.1829,0.1768,0.1883,0.1896,0.1908,0.202,0.2044,0.176,0.1759,0.1759,0.1759,0,0.1556,0.1575,0.1589,0.1621,0.1639,0.1663,0.1685,0.1703,0.1709,0.1726,0.1769,0.1776,0.1806,0.181,0.1801,0.1887,0.1913,0.188,0.1869,0.1927,0.2041,0.2065,0.1763,0.1762,0.1762,0.1761,0,0,0.1568,0.1605,0.1611,0.1628,0.1664,0.1683,0.1722,0.176,0.1797,0.1811,0.1869,0.1884,0.1887,0.1899,0.1899,0.1961,0.2104,0.1961,0.1964,0.2079,0.2324,0.2335,0.2363,0.2097,0.2101,0.2104,0.2381,0,0.1594,0.1639,0.1655,0.17,0.1724,0.1742,0.1781,0.1815,0.1847,0.1904,0.192,0.1972,0.1923,0.1952,0.2003,0.2076,0.2166,0.2035,0.2245,0.2252,0.2259,0.2389,0.2261,0.2496,0.2405,0.2409,0.2412,0,0.1622,0.1649,0.1691,0.1736,0.175,0.1777,0.1839,0.1878,0.1952,0.1982,0.203,0.2055,0.2141,0.2093,0.2263,0.2186,0.2266,0.2322,0.2334,0.2343,0.2307,0.2415,0.2544,0.2474,0.245,0.2447,0.2444,0,0.162,0.1673,0.1702,0.1719,0.1774,0.1795,0.1828,0.1896,0.1946,0.2045,0.2109,0.2186,0.2265,0.2348,0.244,0.2377,0.2651,0.2575,0.2672,0.2675,0.2606,0.2596,0.2692,0.2727,0.2726,0.2726,0.2725,0,0.1636,0.1661,0.1699,0.1717,0.176,0.1798,0.1863,0.1908,0.2004,0.2086,0.2148,0.2248,0.2336,0.2479,0.2528,0.2698,0.2729,0.273,0.2758,0.262,0.2609,0.2573,0.2537,0.2736,0.2734,0.2732,0.273,0,0.1623,0.1652,0.1684,0.1737,0.1756,0.1782,0.1869,0.1921,0.2022,0.2143,0.2188,0.2351,0.2542,0.2646,0.2836,0.2843,0.2909,0.3028,0.288,0.2884,0.2859,0.283,0.2876,0.2781,0.3188,0.3191,0.3192,0,0.1618,0.1632,0.1682,0.1701,0.172,0.1773,0.1812,0.1909,0.1976,0.2201,0.2262,0.2501,0.2646,0.2943,0.3015,0.3168,0.3033,0.314,0.2973,0.2893,0.2881,0.2724,0.2626,0.2924,0.2924,0.2923,0.2923,0,0.1605,0.1616,0.164,0.1678,0.1711,0.1761,0.183,0.1883,0.2022,0.2144,0.2337,0.2487,0.2791,0.2907,0.3122,0.3167,0.2968,0.3136,0.3082,0.273,0.2537,0.2444,0.2732,0.2918,0.2919,0.2919,0.2919,0.292,0.1584,0.1589,0.1618,0.1648,0.1688,0.1732,0.1757,0.185,0.1957,0.2126,0.2314,0.2504,0.2738,0.3014,0.3054,0.3045,0.3,0.2951,0.295,0.2817,0.2629,0.2934,0.3114,0.3115,0.3116,0.3117,0.3118,0,0.1554,0.1566,0.1592,0.1622,0.1642,0.1685,0.1755,0.1775,0.1863,0.2054,0.2217,0.2468,0.2632,0.2786,0.2898,0.2848,0.2658,0.2791,0.2513,0.2443,0.2761,0.2647,0.2695,0.2695,0.2695,0.2695,0.2695,0.2695,0.1539,0.1544,0.1556,0.1569,0.159,0.1601,0.1622,0.1662,0.1763,0.1927,0.207,0.2242,0.2535,0.2741,0.2738,0.2669,0.2451,0.2385,0.2378,0.2579,0.259,0.2601,0.2483,0.2496,0.2496,0.1886,0.1882,0.1879]},{"header":{"parameterUnit":"m.s-1","parameterCategory":2,"la1":30.2991,"la2":30.254,"lo1":-89.0895,"lo2":-89.0444,"dy":0.0017,"dx":0.0017,"nx":28,"ny":28,"refTime":"2025-03-17T03:00:00:Z","depth":"0","parameterNumber":3,"parameterNumberName":"V-component_of_CURRENTS"},"data":[0,0,0,0,0,0,0,0,0,0,0,0,0,0,0,0,0,0,0,0,0,0,0,0,0,0,0,0,0,0,0,0,0,0,0,0,0,0,0,0,0,0,0,0,0,0,0,0,0,0,0,0,0,0,0,0,0,0,0.0004,0.0004,0,-0.0042,-0.0042,-0.0043,-0.0073,-0.0073,-0.0073,-0.0074,-0.0128,-0.0129,-0.013,0,0,0,0,0,0,0,0,0,0,0,0,0,0.0051,0.0051,0.0004,0.0004,0.0003,-0.0042,-0.0042,-0.0043,-0.0073,-0.0073,-0.0074,-0.0074,-0.0127,-0.0129,-0.013,0,0,0,0,0,0,0,0,0,0,0,0,0,0.002,0.005,0.0004,-0.0017,-0.0019,-0.0042,-0.0042,-0.0043,-0.0073,-0.0073,-0.0074,-0.0074,-0.0127,-0.0129,-0.0131,-0.0138,0,0,-0.0137,-0.0137,0,0,0,0,0,0,0,0,0.0022,0.0019,-0.0013,-0.0016,-0.0018,-0.0052,-0.0046,-0.0075,-0.0073,-0.0053,-0.0074,-0.0074,-0.0103,-0.0107,-0.0115,-0.014,-0.0142,-0.0137,-0.0138,-0.0139,-0.0139,0,0,0,0,0,0,0,0.0024,0.002,-0.0014,-0.0014,-0.0017,-0.0029,-0.0034,-0.0051,-0.0076,-0.0055,-0.0057,-0.0061,-0.0104,-0.0113,-0.0117,-0.0143,-0.0137,-0.0138,-0.014,-0.014,-0.018,-0.018,0,0,0,0,0,0,0.0032,0.0022,-0.0013,-0.0016,0.0002,-0.003,-0.0035,-0.0041,-0.0076,-0.0081,-0.0061,-0.0063,-0.011,-0.0114,-0.0119,-0.0122,-0.0139,-0.014,-0.0142,-0.018,-0.018,-0.018,0,0,0,0,0,0,0.0033,0.0029,-0.0011,0.0003,-0.0003,-0.003,-0.0037,-0.0042,-0.0051,-0.0081,-0.0086,-0.0066,-0.011,-0.0116,-0.0133,-0.0125,-0.0141,-0.0143,-0.018,-0.018,-0.018,-0.0133,0,0,0,0,0,0,0.0034,0.003,0.0029,0.0003,-0.0004,-0.0019,-0.0037,-0.0042,-0.0053,-0.0056,-0.0086,-0.0092,-0.0111,-0.013,-0.0135,-0.0128,-0.0145,-0.018,-0.018,-0.018,-0.0135,-0.0132,-0.0129,0,0,0,0,0,0.0036,0.0038,0.0029,0.0025,-0.0004,-0.0019,-0.0023,-0.0043,-0.0053,-0.0054,-0.0076,-0.0091,-0.0133,-0.0132,-0.0138,-0.013,-0.018,-0.018,-0.018,-0.0136,-0.0132,-0.0129,0,0,0,0,0,0,0.0062,0.0035,0.0024,0.0019,0.0004,-0.0023,-0.0026,-0.004,-0.0059,-0.0061,-0.0091,-0.0097,-0.0109,-0.0128,-0.0126,-0.0142,-0.0158,-0.0159,-0.0123,-0.012,-0.0117,-0.0108,-0.0146,0,0,0,0,0,0.0067,0.006,0.0035,0.0032,0.0025,0.0,-0.0008,-0.0022,-0.0042,-0.0051,-0.0071,-0.0094,-0.0113,-0.0122,-0.0141,-0.015,-0.0154,-0.0149,-0.0146,-0.0143,-0.0141,-0.0142,-0.0138,-0.0179,-0.0179,-0.0179,0,0,0.0078,0.0062,0.0058,0.0037,0.0023,0.0022,-0.0005,-0.0014,-0.0014,-0.0053,-0.0059,-0.0084,-0.0113,-0.0123,-0.0129,-0.0137,-0.0132,-0.0143,-0.014,-0.0139,-0.0141,-0.0137,-0.0134,-0.0179,-0.0179,-0.0179,0,0,0.01,0.0081,0.0083,0.0072,0.0054,0.0039,0.0038,0.0014,0.0003,-0.0008,-0.0035,-0.0056,-0.0081,-0.0101,-0.0115,-0.0107,-0.0115,-0.0112,-0.0087,-0.0088,-0.0085,-0.0082,-0.0067,-0.0063,-0.0109,-0.0109,-0.0109,0,0.0115,0.0113,0.0084,0.0086,0.0083,0.005,0.0059,0.0044,0.0018,0.0012,-0.0002,-0.0044,-0.0071,-0.0084,-0.0085,-0.0099,-0.0094,-0.0097,-0.0083,-0.008,-0.0078,-0.0064,-0.006,-0.0107,-0.0107,-0.0107,-0.0107,0,0.0138,0.0138,0.014,0.0131,0.0124,0.0126,0.0102,0.0095,0.0077,0.006,0.0042,0.0002,-0.0022,-0.0035,-0.0059,-0.0058,-0.0058,-0.0077,-0.0088,-0.007,-0.0057,-0.0054,-0.0103,-0.0104,-0.0105,-0.0105,0,0,0.0173,0.0159,0.0162,0.0167,0.0148,0.0147,0.0146,0.0135,0.0143,0.0107,0.0117,0.0063,0.0038,0.0021,-0.0013,-0.0022,-0.0003,-0.0039,-0.0041,-0.0017,0.0013,0.0018,0.0022,-0.0016,-0.0015,-0.0015,0.0021,0,0.0203,0.022,0.0202,0.0222,0.0231,0.0203,0.0208,0.0193,0.0179,0.0182,0.0132,0.0129,0.0061,0.0061,0.0035,0.0015,0.0005,-0.001,-0.0016,-0.0015,-0.0007,0.0025,0.0018,0.005,0.0024,0.0025,0.0025,0,0.0233,0.0241,0.0265,0.027,0.0272,0.0278,0.0282,0.0285,0.0272,0.0264,0.0237,0.0207,0.0183,0.0132,0.0088,0.0085,0.0049,0.0025,0.0025,0.0015,-0.0005,0.0024,0.0057,-0.0081,0.003,0.0029,0.0029,0,0.0275,0.0286,0.0308,0.0309,0.0309,0.0316,0.0319,0.031,0.0337,0.0328,0.0366,0.0297,0.0316,0.0236,0.017,0.0138,0.0141,0.0092,0.0059,0.0059,0.0044,0.0042,-0.0053,0.006,0.006,0.006,0.006,0,0.0314,0.0334,0.033,0.0343,0.0378,0.036,0.0404,0.0395,0.0424,0.0493,0.0418,0.0478,0.0348,0.0329,0.0223,0.0167,0.0181,0.0075,0.007,0.0061,0.0061,-0.007,-0.0147,0.0062,0.0061,0.0061,0.0061,0,0.0357,0.0353,0.0381,0.0389,0.0398,0.0424,0.0477,0.0517,0.0537,0.0635,0.0651,0.0644,0.0625,0.0491,0.0401,0.0279,0.0123,0.0166,0.0172,0.0166,-0.0019,-0.0092,-0.0176,-0.0233,0.013,0.013,0.0131,0,0.0381,0.0397,0.0422,0.045,0.0457,0.0501,0.0543,0.0569,0.0641,0.0757,0.0829,0.0841,0.0882,0.0738,0.0518,0.034,0.018,0.0199,0.0115,-0.0018,-0.0105,-0.0166,-0.0213,0.012,0.012,0.0121,0.0121,0,0.043,0.0433,0.0458,0.0518,0.0563,0.0631,0.0707,0.0788,0.0863,0.0964,0.1119,0.1166,0.1044,0.0882,0.0617,0.0457,0.0094,0.0197,0.0052,-0.0122,-0.0188,-0.0247,0.0094,0.0122,0.0122,0.0122,0.0122,0.0122,0.0469,0.0498,0.0535,0.0592,0.0657,0.0772,0.0862,0.0969,0.1118,0.1302,0.1335,0.1435,0.1171,0.0822,0.0589,0.0134,0.0139,-0.002,-0.0094,-0.014,-0.0217,0.0137,0.0159,0.0159,0.0159,0.0159,0.0159,0,0.0521,0.0555,0.0612,0.0698,0.0794,0.0816,0.0983,0.1094,0.1292,0.1444,0.1578,0.1517,0.1165,0.0766,0.0196,-0.01,-0.0244,-0.0285,-0.0398,-0.043,-0.0118,-0.0144,-0.0179,-0.0179,-0.0178,-0.0178,-0.0178,-0.0178,0.0553,0.0615,0.0642,0.0804,0.0879,0.104,0.1151,0.1309,0.1445,0.1646,0.1716,0.1769,0.1504,0.0445,-0.0248,-0.0416,-0.0639,-0.0681,-0.0774,-0.06,-0.0582,-0.0565,-0.0609,-0.0741,-0.0742,-0.1065,-0.1069,-0.1071]}],[{"header":{"parameterUnit":"m.s-1","parameterCategory":2,"la1":30.2991,"la2":30.254,"lo1":-89.0895,"lo2":-89.0444,"dy":0.0017,"dx":0.0017,"nx":28,"ny":28,"refTime":"2025-03-17T03:00:00:Z","depth":"2","parameterNumber":2,"parameterNumberName":"U-component_of_CURRENTS"},"data":[0,0,0,0,0,0,0,0,0,0,0,0,0,0,0,0,0,0,0,0,0,0,0,0,0,0,0,0,0,0,0,0,0,0,0,0,0,0,0,0,0,0,0,0,0,0,0,0,0,0,0,0,0,0,0,0,0,0,0.1518,0.1519,0,0.1549,0.1549,0.1549,0.1558,0.1558,0.1558,0.1558,0.157,0.157,0.1571,0,0,0,0,0,0,0,0,0,0,0,0,0,0.1465,0.1466,0.1518,0.1519,0.1519,0.1549,0.1549,0.1549,0.1558,0.1558,0.1558,0.1558,0.157,0.157,0.1571,0,0,0,0,0,0,0,0,0,0,0,0,0,0.149,0.1466,0.1518,0.1528,0.1529,0.1549,0.1549,0.1549,0.1558,0.1558,0.1558,0.1558,0.157,0.157,0.1571,0.1577,0,0,0.1573,0.1573,0,0,0,0,0,0,0,0,0.1489,0.1492,0.1526,0.1527,0.1529,0.155,0.1535,0.1558,0.1558,0.1546,0.1558,0.1558,0.1562,0.1564,0.1568,0.1577,0.1578,0.1573,0.1573,0.1573,0.1573,0,0,0,0,0,0,0,0.1487,0.1491,0.1529,0.1526,0.1528,0.153,0.1533,0.1539,0.1553,0.1547,0.1548,0.1553,0.1563,0.1568,0.1569,0.1578,0.1573,0.1573,0.1574,0.1574,0.1628,0.1629,0,0,0,0,0,0,0.1486,0.1489,0.1528,0.153,0.1509,0.1531,0.1535,0.1543,0.1554,0.1556,0.1553,0.1553,0.1567,0.1568,0.1569,0.161,0.1573,0.1574,0.1574,0.1627,0.1628,0.1629,0,0,0,0,0,0,0.1485,0.1489,0.1527,0.1511,0.1516,0.1532,0.1541,0.1543,0.1552,0.1559,0.156,0.156,0.1567,0.1568,0.1583,0.1609,0.1574,0.1575,0.1626,0.1627,0.1629,0.1669,0,0,0,0,0,0,0.1483,0.1489,0.1494,0.1511,0.1517,0.1546,0.1541,0.1544,0.1555,0.1556,0.1565,0.1566,0.1567,0.1582,0.1583,0.1609,0.1575,0.1624,0.1626,0.1628,0.1667,0.1672,0.1677,0,0,0,0,0,0.1481,0.1493,0.1494,0.1499,0.1524,0.1546,0.155,0.156,0.1556,0.1565,0.1571,0.1565,0.1596,0.1583,0.1585,0.1611,0.1623,0.1626,0.1628,0.1664,0.1671,0.1677,0,0,0,0,0,0,0.1478,0.1496,0.1497,0.1515,0.1531,0.1548,0.1559,0.1562,0.1574,0.1574,0.1574,0.1576,0.16,0.1598,0.1584,0.1633,0.1611,0.1614,0.1638,0.1644,0.165,0.1664,0.1576,0,0,0,0,0,0.1478,0.149,0.1508,0.1523,0.1531,0.1544,0.1553,0.1561,0.1573,0.1578,0.1585,0.1595,0.1612,0.1621,0.1631,0.1654,0.1697,0.1674,0.1679,0.1683,0.1697,0.1776,0.179,0.1637,0.1637,0.1637,0,0,0.1481,0.1493,0.1499,0.1522,0.1534,0.1558,0.1549,0.1569,0.1591,0.1577,0.1607,0.161,0.1621,0.165,0.1662,0.1652,0.1756,0.1687,0.169,0.1702,0.178,0.1796,0.1809,0.1639,0.1639,0.1639,0,0,0.1498,0.1504,0.1521,0.1537,0.1558,0.1569,0.1576,0.1596,0.1607,0.1631,0.1632,0.1652,0.167,0.1691,0.1701,0.1741,0.1778,0.1743,0.1784,0.1861,0.1875,0.1887,0.199,0.2012,0.1749,0.1749,0.1749,0,0.1502,0.1526,0.153,0.1555,0.1572,0.1576,0.1603,0.1619,0.1642,0.1658,0.1646,0.1696,0.1695,0.1747,0.176,0.1754,0.1814,0.1759,0.187,0.1883,0.1895,0.1997,0.202,0.1751,0.1751,0.1751,0.175,0,0.1535,0.1554,0.1568,0.1599,0.1617,0.1641,0.1663,0.1682,0.169,0.1708,0.1753,0.1761,0.1793,0.1797,0.1789,0.1873,0.1896,0.1866,0.1856,0.1913,0.2017,0.2041,0.1754,0.1753,0.1753,0.1752,0,0,0.1546,0.1583,0.1589,0.1607,0.1642,0.166,0.1699,0.1738,0.1775,0.1792,0.185,0.1867,0.1873,0.1886,0.1886,0.1946,0.2081,0.1946,0.1949,0.2054,0.229,0.2224,0.2243,0.2076,0.208,0.2083,0.2339,0,0.1572,0.1616,0.1632,0.1677,0.17,0.1719,0.1758,0.1792,0.1825,0.1883,0.1901,0.1954,0.1908,0.1938,0.1987,0.2057,0.214,0.2017,0.2215,0.2222,0.2159,0.2266,0.2015,0.2215,0.2362,0.2366,0.2369,0,0.1599,0.1625,0.1667,0.1713,0.1726,0.1754,0.1816,0.1854,0.1928,0.1959,0.2009,0.2036,0.2122,0.2075,0.2237,0.2166,0.2237,0.2289,0.2299,0.2238,0.2197,0.2176,0.2251,0.2408,0.2404,0.2402,0.2399,0,0.1597,0.1649,0.1679,0.1695,0.175,0.1773,0.1806,0.1873,0.1923,0.2022,0.2086,0.2164,0.2241,0.232,0.2405,0.2346,0.2603,0.2532,0.2553,0.2551,0.2374,0.2349,0.2674,0.2674,0.2673,0.2672,0.2672,0,0.1613,0.1638,0.1677,0.1695,0.1738,0.1776,0.1842,0.1886,0.1982,0.2065,0.2126,0.2225,0.231,0.2445,0.2489,0.2607,0.2678,0.2599,0.2617,0.2383,0.2356,0.2532,0.2512,0.2682,0.268,0.2678,0.2676,0,0.16,0.1629,0.1662,0.1715,0.1734,0.1762,0.185,0.1902,0.2002,0.2123,0.2168,0.2326,0.2497,0.2591,0.2767,0.2733,0.2838,0.2865,0.2597,0.2575,0.272,0.2699,0.2919,0.2919,0.2919,0.2919,0.2919,0,0.1595,0.161,0.1661,0.168,0.1701,0.1755,0.1794,0.1891,0.1959,0.218,0.2242,0.2459,0.258,0.2813,0.2796,0.289,0.2938,0.2725,0.2535,0.2753,0.2749,0.2728,0.2707,0.2348,0.2343,0.234,0.2336,0,0.1582,0.1595,0.162,0.1659,0.1694,0.1744,0.1815,0.1869,0.2008,0.2124,0.2304,0.243,0.2627,0.2606,0.272,0.2716,0.2669,0.2648,0.299,0.2297,0.2226,0.2217,0.2215,0.2302,0.2305,0.2308,0.231,0.2311,0.1562,0.1569,0.16,0.1633,0.1673,0.1718,0.1746,0.1837,0.194,0.2077,0.2236,0.2331,0.2393,0.2411,0.2396,0.2366,0.2528,0.2411,0.2418,0.2431,0.229,0.222,0.2273,0.2276,0.2278,0.2281,0.2283,0,0.1533,0.1548,0.1576,0.161,0.1633,0.1676,0.1747,0.1761,0.1843,0.1959,0.2066,0.1923,0.1955,0.2046,0.1934,0.195,0.1869,0.1895,0.1767,0.1804,0.1837,0.1659,0.1479,0.1476,0.1474,0.1472,0,0,0.1518,0.1526,0.1538,0.156,0.1587,0.1605,0.1628,0.1645,0.1698,0.1696,0.1699,0.183,0.1953,0.1657,0.1648,0.1563,0.1659,0.1495,0.214,0.2025,0.2054,0.214,0.1911,0,0,0,0,0]},{"header":{"parameterUnit":"m.s-1","parameterCategory":2,"la1":30.2991,"la2":30.254,"lo1":-89.0895,"lo2":-89.0444,"dy":0.0017,"dx":0.0017,"nx":28,"ny":28,"refTime":"2025-03-17T03:00:00:Z","depth":"2","parameterNumber":3,"parameterNumberName":"V-component_of_CURRENTS"},"data":[0,0,0,0,0,0,0,0,0,0,0,0,0,0,0,0,0,0,0,0,0,0,0,0,0,0,0,0,0,0,0,0,0,0,0,0,0,0,0,0,0,0,0,0,0,0,0,0,0,0,0,0,0,0,0,0,0,0,-0.0102,-0.0102,0,-0.0148,-0.0149,-0.0149,-0.0177,-0.0177,-0.0178,-0.0178,-0.0231,-0.0232,-0.0234,0,0,0,0,0,0,0,0,0,0,0,0,0,-0.0053,-0.0054,-0.0102,-0.0102,-0.0103,-0.0148,-0.0149,-0.0149,-0.0177,-0.0177,-0.0178,-0.0178,-0.0231,-0.0232,-0.0234,0,0,0,0,0,0,0,0,0,0,0,0,0,-0.0085,-0.0054,-0.0101,-0.0122,-0.0124,-0.0148,-0.0149,-0.0149,-0.0177,-0.0177,-0.0178,-0.0178,-0.023,-0.0232,-0.0234,-0.0243,0,0,-0.024,-0.0241,0,0,0,0,0,0,0,0,-0.0083,-0.0086,-0.0118,-0.012,-0.0123,-0.0157,-0.0151,-0.0181,-0.0177,-0.0158,-0.0178,-0.0178,-0.0206,-0.021,-0.0219,-0.0246,-0.0248,-0.024,-0.0241,-0.0242,-0.0243,0,0,0,0,0,0,0,-0.0081,-0.0085,-0.012,-0.0119,-0.0122,-0.0134,-0.0139,-0.0157,-0.0181,-0.0159,-0.0161,-0.0166,-0.0208,-0.0217,-0.0221,-0.0249,-0.024,-0.0242,-0.0243,-0.0244,-0.0286,-0.0286,0,0,0,0,0,0,-0.0073,-0.0083,-0.0119,-0.0122,-0.0102,-0.0135,-0.014,-0.0146,-0.0181,-0.0186,-0.0166,-0.0167,-0.0214,-0.0218,-0.0223,-0.0226,-0.0242,-0.0244,-0.0245,-0.0286,-0.0286,-0.0286,0,0,0,0,0,0,-0.0072,-0.0076,-0.0117,-0.0103,-0.0109,-0.0135,-0.0142,-0.0147,-0.0155,-0.0185,-0.0191,-0.0168,-0.0214,-0.022,-0.0238,-0.0229,-0.0245,-0.0247,-0.0286,-0.0286,-0.0286,-0.0239,0,0,0,0,0,0,-0.007,-0.0075,-0.0075,-0.0102,-0.0109,-0.0125,-0.0142,-0.0148,-0.0157,-0.0159,-0.019,-0.0195,-0.0215,-0.0234,-0.0239,-0.0232,-0.0248,-0.0286,-0.0286,-0.0286,-0.024,-0.0237,-0.0234,0,0,0,0,0,-0.0069,-0.0067,-0.0075,-0.0079,-0.0109,-0.0125,-0.013,-0.0149,-0.0157,-0.0158,-0.018,-0.0194,-0.0237,-0.0236,-0.0242,-0.0234,-0.0287,-0.0286,-0.0286,-0.0242,-0.0237,-0.0234,0,0,0,0,0,0,-0.0043,-0.007,-0.008,-0.0086,-0.0102,-0.013,-0.0132,-0.0146,-0.0164,-0.0165,-0.0194,-0.0201,-0.0213,-0.0232,-0.023,-0.0247,-0.0264,-0.0265,-0.0228,-0.0224,-0.0221,-0.0211,-0.025,0,0,0,0,0,-0.0037,-0.0045,-0.007,-0.0073,-0.008,-0.0105,-0.0113,-0.0126,-0.0147,-0.0155,-0.0175,-0.0198,-0.0217,-0.0227,-0.0247,-0.0256,-0.0264,-0.0256,-0.0253,-0.025,-0.0247,-0.0251,-0.0247,-0.0286,-0.0286,-0.0286,0,0,-0.0027,-0.0043,-0.0047,-0.0068,-0.0082,-0.0085,-0.011,-0.0119,-0.012,-0.0158,-0.0163,-0.0188,-0.0218,-0.0228,-0.0235,-0.0243,-0.0242,-0.025,-0.0247,-0.0245,-0.025,-0.0246,-0.0243,-0.0286,-0.0286,-0.0286,0,0,-0.0008,-0.0025,-0.0023,-0.0034,-0.0053,-0.0068,-0.0068,-0.0092,-0.0102,-0.0113,-0.014,-0.0159,-0.0186,-0.0207,-0.0221,-0.0213,-0.0225,-0.0219,-0.0193,-0.0197,-0.0194,-0.0191,-0.0187,-0.0184,-0.0216,-0.0216,-0.0216,0,0.0007,0.0004,-0.0023,-0.0022,-0.0026,-0.0056,-0.0049,-0.0064,-0.0089,-0.0094,-0.0107,-0.0148,-0.0175,-0.0191,-0.019,-0.0205,-0.0206,-0.0203,-0.0192,-0.0189,-0.0187,-0.0183,-0.0181,-0.0214,-0.0214,-0.0214,-0.0214,0,0.0026,0.0027,0.0029,0.002,0.0012,0.0014,-0.0009,-0.0015,-0.0031,-0.0047,-0.0064,-0.0104,-0.0127,-0.014,-0.0164,-0.0165,-0.0169,-0.0186,-0.0197,-0.018,-0.0178,-0.0176,-0.021,-0.0211,-0.0212,-0.0212,0,0,0.0058,0.0045,0.0048,0.0053,0.0036,0.0034,0.0033,0.0023,0.0031,-0.0002,0.0007,-0.0044,-0.0067,-0.0085,-0.0118,-0.0129,-0.0116,-0.0147,-0.0148,-0.0135,-0.0113,-0.0165,-0.0168,-0.0127,-0.0127,-0.0126,-0.0114,0,0.0086,0.0101,0.0084,0.0104,0.0111,0.0087,0.0092,0.0079,0.0065,0.0068,0.0021,0.0017,-0.0045,-0.0045,-0.0071,-0.0097,-0.0111,-0.0118,-0.0139,-0.014,-0.0181,-0.0168,-0.0169,-0.0163,-0.0112,-0.0112,-0.0112,0,0.0113,0.012,0.0143,0.015,0.0151,0.0158,0.0165,0.0167,0.0155,0.0148,0.0124,0.0094,0.0068,0.0021,-0.0031,-0.0029,-0.007,-0.0099,-0.0099,-0.0163,-0.0189,-0.0175,-0.0162,-0.0109,-0.0109,-0.0109,-0.011,0,0.0153,0.0164,0.0185,0.0187,0.0187,0.0196,0.0201,0.0193,0.0219,0.021,0.0244,0.0177,0.019,0.0111,0.0037,0.0013,-0.0006,-0.0047,-0.0136,-0.0139,-0.0155,-0.0161,-0.0084,-0.0084,-0.0084,-0.0084,-0.0084,0,0.0189,0.0208,0.0207,0.0221,0.0255,0.024,0.0284,0.0276,0.0304,0.0366,0.0296,0.0342,0.0218,0.0187,0.0083,-0.0013,0.0027,-0.0128,-0.0142,-0.0139,-0.0144,-0.0114,-0.0118,-0.0084,-0.0084,-0.0084,-0.0084,0,0.0229,0.0227,0.0255,0.0266,0.0276,0.0302,0.0355,0.0393,0.0412,0.0499,0.0513,0.0492,0.0447,0.0313,0.0212,0.0073,-0.0031,-0.0076,-0.0065,-0.008,-0.0174,-0.0176,-0.0184,-0.0185,-0.0187,-0.0188,-0.0189,0,0.0251,0.0267,0.0295,0.0323,0.0332,0.0377,0.0419,0.0444,0.0509,0.0605,0.0666,0.0649,0.0639,0.0448,0.0209,0.0003,-0.0005,-0.0138,-0.0212,-0.0173,-0.0185,-0.0184,-0.0184,-0.0201,-0.0202,-0.0202,-0.0203,0,0.0295,0.0301,0.0326,0.0387,0.0432,0.0497,0.0569,0.0638,0.0705,0.078,0.0886,0.0884,0.0701,0.0478,0.0176,0.0027,-0.0121,-0.0166,-0.01,-0.0191,-0.0193,-0.0204,-0.0202,-0.0211,-0.021,-0.021,-0.0209,-0.0209,0.0331,0.0359,0.0398,0.0455,0.0518,0.0619,0.0699,0.0784,0.0898,0.1007,0.1007,0.0987,0.0729,0.0312,0.0089,-0.0159,-0.017,-0.028,-0.0275,-0.027,-0.029,-0.0296,-0.0336,-0.0336,-0.0336,-0.0336,-0.0336,0,0.0373,0.0411,0.0468,0.0548,0.0637,0.0668,0.0806,0.0874,0.1013,0.1068,0.1111,0.083,0.0589,0.0345,-0.004,-0.0292,-0.0301,-0.035,-0.0302,-0.0295,-0.0289,-0.0308,-0.0359,-0.0359,-0.0359,-0.036,0,0,0.0399,0.0456,0.0483,0.0635,0.0716,0.0871,0.0963,0.1018,0.1073,0.1077,0.1049,0.0944,0.0643,0.0351,0.0041,-0.0133,-0.0156,-0.018,-0.0147,-0.0049,-0.0038,-0.0247,-0.027,0,0,0,0,0]}],[{"header":{"parameterUnit":"m.s-1","parameterCategory":2,"la1":30.2991,"la2":30.254,"lo1":-89.0895,"lo2":-89.0444,"dy":0.0017,"dx":0.0017,"nx":28,"ny":28,"refTime":"2025-03-17T03:00:00:Z","depth":"4","parameterNumber":2,"parameterNumberName":"U-component_of_CURRENTS"},"data":[0,0,0,0,0,0,0,0,0,0,0,0,0,0,0,0,0,0,0,0,0,0,0,0,0,0,0,0,0,0,0,0,0,0,0,0,0,0,0,0,0,0,0,0,0,0,0,0,0,0,0,0,0,0,0,0,0,0,0.0927,0.0927,0,0.0933,0.0933,0.0933,0.0939,0.0939,0.0939,0.0939,0.0953,0.0953,0.0954,0,0,0,0,0,0,0,0,0,0,0,0,0,0.0904,0.0904,0.0927,0.0927,0.0927,0.0933,0.0933,0.0933,0.0939,0.0939,0.0939,0.0939,0.0953,0.0953,0.0954,0,0,0,0,0,0,0,0,0,0,0,0,0,0.0911,0.0904,0.0927,0.0932,0.0932,0.0933,0.0933,0.0933,0.0939,0.0939,0.0939,0.0939,0.0953,0.0953,0.0954,0.0951,0,0,0.0955,0.0955,0,0,0,0,0,0,0,0,0.0911,0.0912,0.0931,0.0931,0.0932,0.0936,0.093,0.094,0.0938,0.0935,0.0939,0.0939,0.0949,0.0949,0.0949,0.0952,0.0953,0.0955,0.0955,0.0955,0.0955,0,0,0,0,0,0,0,0.091,0.0912,0.0929,0.0931,0.0932,0.0928,0.0929,0.0932,0.094,0.0935,0.0936,0.0938,0.0949,0.0948,0.0949,0.0953,0.0955,0.0955,0.0955,0.0955,0.0987,0.0988,0,0,0,0,0,0,0.0912,0.0911,0.0928,0.0929,0.0923,0.0928,0.093,0.0934,0.094,0.0941,0.0938,0.0938,0.0947,0.0949,0.095,0.1014,0.0955,0.0955,0.0956,0.0987,0.0988,0.0988,0,0,0,0,0,0,0.0912,0.0914,0.0928,0.0921,0.0923,0.0928,0.0933,0.0934,0.0957,0.0942,0.0943,0.0963,0.0948,0.0949,0.098,0.1012,0.0956,0.0956,0.0986,0.0987,0.0988,0.1099,0,0,0,0,0,0,0.0911,0.0914,0.0928,0.0921,0.0923,0.0947,0.0933,0.0934,0.0957,0.0958,0.0963,0.0963,0.0948,0.0979,0.098,0.1011,0.0956,0.0985,0.0987,0.0988,0.1095,0.1104,0.1111,0,0,0,0,0,0.091,0.0923,0.0928,0.0931,0.0939,0.0948,0.095,0.0953,0.0958,0.0974,0.0983,0.0964,0.0986,0.0981,0.0982,0.1013,0.0985,0.0986,0.0988,0.1091,0.1102,0.1111,0,0,0,0,0,0,0.0918,0.0925,0.093,0.0945,0.0956,0.095,0.0965,0.097,0.0989,0.0997,0.0985,0.0986,0.1017,0.0997,0.0992,0.1021,0.0977,0.0979,0.1056,0.1066,0.1074,0.1063,0.0957,0,0,0,0,0,0.0927,0.0943,0.0947,0.0963,0.0971,0.0975,0.0984,0.0989,0.0998,0.1008,0.1013,0.1013,0.1018,0.1031,0.1024,0.1054,0.1057,0.1068,0.1076,0.1084,0.1072,0.1125,0.1138,0.0993,0.0993,0.0993,0,0,0.0933,0.0941,0.095,0.0967,0.0975,0.0989,0.0982,0.1004,0.102,0.1006,0.104,0.1045,0.103,0.1059,0.1071,0.1054,0.1131,0.1086,0.1093,0.1076,0.1128,0.1142,0.1155,0.0994,0.0994,0.0994,0,0,0.0948,0.0964,0.0981,0.0993,0.1015,0.1017,0.1032,0.1045,0.1058,0.109,0.1082,0.1116,0.1119,0.1125,0.1125,0.1175,0.117,0.1168,0.1214,0.1268,0.1281,0.1292,0.1342,0.1357,0.1179,0.118,0.118,0,0.0957,0.0976,0.0989,0.1006,0.1019,0.1034,0.1053,0.1066,0.109,0.111,0.111,0.114,0.1146,0.1179,0.1201,0.1197,0.1222,0.1187,0.1283,0.1294,0.1304,0.1351,0.1366,0.1185,0.1184,0.1184,0.1183,0,0.0976,0.0999,0.1012,0.1038,0.1056,0.1077,0.1094,0.1123,0.1146,0.116,0.1205,0.1219,0.1243,0.125,0.1247,0.1313,0.1309,0.129,0.1266,0.1326,0.1371,0.1385,0.1193,0.1191,0.1189,0.1188,0,0,0.0967,0.1016,0.1021,0.1039,0.1076,0.1087,0.1126,0.1161,0.1195,0.1225,0.1278,0.13,0.1325,0.1324,0.1334,0.1376,0.1493,0.1372,0.1373,0.1437,0.1621,0.1475,0.1476,0.1504,0.1506,0.1508,0.1636,0,0.0978,0.1017,0.1039,0.1075,0.1094,0.1124,0.1158,0.1195,0.1234,0.1293,0.1321,0.1372,0.1348,0.1391,0.1431,0.1477,0.1529,0.146,0.1537,0.1539,0.1416,0.1486,0.1515,0.1646,0.1649,0.1652,0.1653,0,0.098,0.1008,0.105,0.1096,0.1109,0.1137,0.1199,0.1233,0.1311,0.1353,0.1411,0.1441,0.1521,0.1494,0.1595,0.1558,0.1599,0.1619,0.1624,0.1449,0.1416,0.1564,0.1678,0.1676,0.1674,0.1672,0.1671,0,0.0956,0.1008,0.1045,0.106,0.1118,0.115,0.1188,0.1257,0.1305,0.1411,0.148,0.1543,0.1625,0.166,0.1701,0.1679,0.1799,0.1778,0.1676,0.1668,0.1714,0.17,0.1848,0.1848,0.1848,0.1848,0.1847,0,0.0944,0.0969,0.1042,0.1056,0.1102,0.115,0.1213,0.1264,0.1369,0.1432,0.1522,0.1573,0.1676,0.1744,0.175,0.1748,0.1849,0.1688,0.1689,0.1759,0.1748,0.1726,0.171,0.1852,0.1851,0.185,0.185,0,0.0904,0.0955,0.0991,0.1063,0.1091,0.1124,0.1225,0.1268,0.1386,0.1484,0.1535,0.1663,0.174,0.1802,0.1886,0.182,0.1822,0.1795,0.1879,0.1882,0.1651,0.164,0.1711,0.1707,0.1703,0.1701,0.1698,0,0.0885,0.0905,0.0984,0.1012,0.1049,0.1113,0.1154,0.1264,0.1311,0.1489,0.1523,0.1672,0.173,0.1741,0.1796,0.1816,0.1778,0.1784,0.1691,0.1642,0.1638,0.1631,0.1624,0.1692,0.1692,0.1691,0.169,0,0.084,0.0879,0.091,0.0967,0.1014,0.1064,0.1132,0.1167,0.1293,0.1421,0.148,0.1528,0.1621,0.1654,0.1699,0.1687,0.1776,0.1747,0.1754,0.1667,0.1621,0.1618,0.1615,0.1678,0.1679,0.1681,0.1681,0,0.0802,0.0811,0.0861,0.09,0.0963,0.0996,0.1041,0.1091,0.1158,0.1343,0.1342,0.1477,0.1593,0.1586,0.1597,0.1605,0.1574,0.1508,0.1526,0.1541,0.1417,0.133,0.1306,0,0,0,0,0,0.0758,0.0759,0.079,0.0814,0.0876,0.0921,0.1015,0.1064,0.1181,0.1185,0.1267,0.1324,0.1377,0.1424,0.14,0.1523,0.1584,0.1485,0.1518,0.161,0.1624,0.149,0,0,0,0,0,0,0.0723,0.075,0.0757,0.0746,0.0757,0.0808,0.0878,0.0961,0.096,0.1089,0.1119,0.1218,0.1284,0.1378,0.1366,0.1384,0.137,0.1559,0.1554,0.1602,0.1615,0.1626,0.1493,0,0,0,0,0]},{"header":{"parameterUnit":"m.s-1","parameterCategory":2,"la1":30.2991,"la2":30.254,"lo1":-89.0895,"lo2":-89.0444,"dy":0.0017,"dx":0.0017,"nx":28,"ny":28,"refTime":"2025-03-17T03:00:00:Z","depth":"4","parameterNumber":3,"parameterNumberName":"V-component_of_CURRENTS"},"data":[0,0,0,0,0,0,0,0,0,0,0,0,0,0,0,0,0,0,0,0,0,0,0,0,0,0,0,0,0,0,0,0,0,0,0,0,0,0,0,0,0,0,0,0,0,0,0,0,0,0,0,0,0,0,0,0,0,0,-0.0185,-0.0186,0,-0.023,-0.0231,-0.0231,-0.0264,-0.0264,-0.0264,-0.0265,-0.0351,-0.0353,-0.0355,0,0,0,0,0,0,0,0,0,0,0,0,0,-0.0147,-0.0147,-0.0185,-0.0186,-0.0186,-0.023,-0.0231,-0.0231,-0.0264,-0.0264,-0.0264,-0.0265,-0.0351,-0.0353,-0.0356,0,0,0,0,0,0,0,0,0,0,0,0,0,-0.0175,-0.0147,-0.0185,-0.0208,-0.021,-0.023,-0.0231,-0.0231,-0.0264,-0.0264,-0.0264,-0.0265,-0.035,-0.0353,-0.0356,-0.0368,0,0,-0.0365,-0.0367,0,0,0,0,0,0,0,0,-0.0173,-0.0176,-0.0204,-0.0206,-0.0209,-0.0241,-0.0249,-0.0279,-0.0264,-0.0244,-0.0265,-0.0265,-0.0318,-0.0324,-0.0331,-0.0372,-0.0376,-0.0366,-0.0368,-0.0369,-0.037,0,0,0,0,0,0,0,-0.0171,-0.0175,-0.0204,-0.0204,-0.0207,-0.0221,-0.0226,-0.0255,-0.0279,-0.0246,-0.0248,-0.0252,-0.032,-0.0328,-0.0334,-0.0377,-0.0366,-0.0368,-0.037,-0.0372,-0.0433,-0.0432,0,0,0,0,0,0,-0.0163,-0.0173,-0.0202,-0.0205,-0.0191,-0.0222,-0.0227,-0.0231,-0.0278,-0.0285,-0.0252,-0.0253,-0.0323,-0.033,-0.0337,-0.0356,-0.0369,-0.0372,-0.0374,-0.0433,-0.0433,-0.0432,0,0,0,0,0,0,-0.0162,-0.0166,-0.02,-0.0189,-0.0195,-0.0222,-0.0227,-0.0232,-0.0244,-0.0282,-0.029,-0.0259,-0.0323,-0.0333,-0.0358,-0.036,-0.0373,-0.0376,-0.0433,-0.0433,-0.0432,-0.0393,0,0,0,0,0,0,-0.0161,-0.0165,-0.0166,-0.0189,-0.0195,-0.021,-0.0226,-0.0232,-0.0245,-0.0248,-0.0292,-0.03,-0.0324,-0.0353,-0.0361,-0.0364,-0.0379,-0.0434,-0.0433,-0.0433,-0.0395,-0.0392,-0.0389,0,0,0,0,0,-0.016,-0.016,-0.0166,-0.017,-0.0196,-0.021,-0.0214,-0.0235,-0.0245,-0.0248,-0.0274,-0.0298,-0.0356,-0.0355,-0.0365,-0.0369,-0.0434,-0.0433,-0.0433,-0.0396,-0.0392,-0.0389,0,0,0,0,0,0,-0.0146,-0.0164,-0.0171,-0.0177,-0.0191,-0.0215,-0.0221,-0.0234,-0.0257,-0.0261,-0.0297,-0.0307,-0.0329,-0.0353,-0.0351,-0.0384,-0.0398,-0.04,-0.0368,-0.0364,-0.0361,-0.0344,-0.0381,0,0,0,0,0,-0.0142,-0.0146,-0.0165,-0.017,-0.0175,-0.0198,-0.0207,-0.0219,-0.0241,-0.0251,-0.028,-0.0309,-0.0333,-0.0351,-0.0375,-0.0396,-0.0413,-0.0404,-0.0401,-0.0398,-0.039,-0.0405,-0.0402,-0.043,-0.043,-0.043,0,0,-0.0138,-0.0148,-0.0151,-0.0167,-0.018,-0.0184,-0.0204,-0.0215,-0.0219,-0.0258,-0.0275,-0.0301,-0.0335,-0.0354,-0.0367,-0.0376,-0.0401,-0.0397,-0.0395,-0.0388,-0.0404,-0.0401,-0.0399,-0.043,-0.043,-0.043,0,0,-0.0131,-0.0141,-0.0142,-0.015,-0.0164,-0.0176,-0.0178,-0.02,-0.0211,-0.0228,-0.0254,-0.0275,-0.0318,-0.0337,-0.0354,-0.0349,-0.0382,-0.0362,-0.0338,-0.0352,-0.035,-0.0348,-0.0375,-0.0376,-0.0363,-0.0363,-0.0363,0,-0.0127,-0.0129,-0.0144,-0.0145,-0.0148,-0.017,-0.0168,-0.0181,-0.0208,-0.0212,-0.0228,-0.0276,-0.0307,-0.0325,-0.0323,-0.0342,-0.0359,-0.035,-0.0348,-0.0346,-0.0345,-0.0373,-0.0374,-0.0361,-0.0361,-0.0361,-0.0362,0,-0.012,-0.012,-0.0121,-0.0127,-0.0131,-0.0133,-0.0148,-0.0154,-0.0169,-0.0183,-0.0202,-0.0241,-0.0266,-0.0283,-0.0304,-0.0311,-0.033,-0.034,-0.0355,-0.034,-0.037,-0.0372,-0.0358,-0.0359,-0.0359,-0.036,0,0,-0.0115,-0.0115,-0.0116,-0.011,-0.012,-0.0122,-0.0121,-0.0126,-0.0122,-0.0152,-0.0152,-0.0194,-0.0212,-0.0231,-0.0263,-0.0279,-0.0292,-0.0303,-0.0305,-0.0326,-0.0333,-0.0328,-0.033,-0.0301,-0.0301,-0.0301,-0.0361,0,-0.0106,-0.0095,-0.01,-0.0089,-0.0084,-0.0093,-0.0086,-0.0091,-0.0104,-0.0109,-0.0144,-0.0159,-0.0195,-0.0207,-0.0227,-0.0275,-0.0294,-0.0275,-0.0348,-0.035,-0.0344,-0.0331,-0.0301,-0.0363,-0.0363,-0.0363,-0.0364,0,-0.0099,-0.009,-0.0075,-0.006,-0.0058,-0.0053,-0.0041,-0.004,-0.0048,-0.0055,-0.0075,-0.0104,-0.0136,-0.0164,-0.0235,-0.0222,-0.027,-0.0308,-0.0311,-0.0319,-0.0348,-0.038,-0.0368,-0.0368,-0.0367,-0.0367,-0.0367,0,-0.0085,-0.0074,-0.0057,-0.0054,-0.0042,-0.0032,-0.0025,-0.0023,-0.001,-0.0022,-0.0014,-0.0062,-0.0082,-0.0143,-0.0228,-0.023,-0.0305,-0.032,-0.0362,-0.0364,-0.0369,-0.037,-0.0359,-0.0359,-0.0359,-0.0359,-0.0359,0,-0.0074,-0.0063,-0.0048,-0.004,-0.0013,-0.0011,0.0015,0.0018,0.0031,0.005,0.0014,0.0008,-0.0075,-0.0132,-0.0211,-0.0294,-0.0296,-0.0352,-0.0372,-0.0353,-0.0352,-0.0371,-0.0372,-0.0361,-0.0361,-0.036,-0.036,0,-0.0066,-0.0057,-0.0039,-0.0018,-0.0007,0.001,0.0046,0.0063,0.0077,0.0101,0.0102,0.0062,-0.0013,-0.0103,-0.0209,-0.0267,-0.0352,-0.0382,-0.036,-0.038,-0.0407,-0.0405,-0.043,-0.043,-0.043,-0.043,-0.043,0,-0.0062,-0.0051,-0.0022,-0.0006,0.0003,0.0033,0.0057,0.0082,0.0106,0.0125,0.0137,0.0085,0.0043,-0.0098,-0.0205,-0.0344,-0.0364,-0.0407,-0.0397,-0.0394,-0.0412,-0.0409,-0.0407,-0.043,-0.043,-0.043,-0.043,0,-0.0057,-0.0048,-0.0031,0.0004,0.0029,0.0062,0.0099,0.0128,0.016,0.0177,0.0176,0.011,0.003,-0.0092,-0.0194,-0.0301,-0.0377,-0.0409,-0.041,-0.0401,-0.0396,-0.0412,-0.041,-0.0431,-0.0431,-0.0431,-0.0431,0,-0.0058,-0.0046,-0.0024,0.0007,0.0039,0.0075,0.0101,0.0137,0.0168,0.0206,0.0192,0.0116,0.0071,-0.0071,-0.0177,-0.0266,-0.029,-0.0317,-0.0323,-0.0324,-0.0274,-0.0251,-0.0252,0,0,0,0,0,-0.0062,-0.0051,-0.0022,0.0004,0.0037,0.0054,0.012,0.0147,0.0188,0.02,0.0209,0.0137,0.0007,-0.0063,-0.015,-0.0202,-0.0325,-0.0309,-0.0364,-0.0434,-0.0433,-0.0392,0,0,0,0,0,0,-0.007,-0.0048,-0.0029,-0.0003,0.0009,0.0044,0.0084,0.0117,0.0135,0.0169,0.01,0.0098,-0.0037,0.0045,-0.0164,-0.0191,-0.0239,-0.0365,-0.0367,-0.0434,-0.0434,-0.0433,-0.039,0,0,0,0,0]}]]